Weather History for KAQP - March, 2013

Change the Weather History Date:

Monday, March 11, 2013

  Actual Average Record
Temperature  
Mean Temperature 16 °F -  
Max Temperature 26 °F 28 °F 62 °F (2012)
Min Temperature 5 °F 13 °F -7 °F (1998)
Degree Days  
Heating Degree Days 50    
Moisture  
Dew Point 11 °F    
Average Humidity 78    
Maximum Humidity 86    
Minimum Humidity 68    
Precipitation  
Precipitation 0.00 in - - ()
Sea Level Pressure  
Sea Level Pressure 29.89 in    
Wind  
Wind Speed 11 mph (NW)    
Max Wind Speed 18 mph    
Max Gust Speed 21 mph    
Visibility 10 miles    
Events      
Averages and records for this station are not official NWS values.
T = Trace of Precipitation, MM = Missing Value Source: NWS Daily Summary

Daily Weather History Graph

Daily Weather History Graph

Search for Another Location

Airport or City:

Trip Planner

Search our weather history database for the weather conditions in past years. The results will help you decide how hot, cold, wet, or windy it might be!

Date:

Astronomy

Mar. 11, 2013 Rise Set
Actual Time 7:43 AM CDT 7:25 PM CDT
Civil Twilight 7:14 AM CDT 7:54 PM CDT
Nautical Twilight 6:39 AM CDT 8:28 PM CDT
Astronomical Twilight 6:05 AM CDT 9:03 PM CDT
Moon 7:16 AM CDT (3/11) 7:41 PM CDT (3/11)
Length of Visible Light 12h 40m
Length of Day
11h 41m
Waning Crescent, 0% of the Moon is Illuminated
Mar 11
Waning Crescent
Mar 11
New
Mar 19
First Quarter
Mar 27
Full
Apr 2
Last Quarter

Hourly Weather History & Observations

Time (CDT) Temp. Windchill Dew Point Humidity Pressure Visibility Wind Dir Wind Speed Gust Speed Precip Events Conditions
12:14 AM 14.0 °F -3.0 °F 10.4 °F 86% 30.01 in 10.0 mi NNW 18.4 mph - N/A   Mostly Cloudy
12:33 AM 14.0 °F -2.5 °F 10.4 °F 86% 30.01 in 10.0 mi NNW 17.3 mph - N/A   Overcast
12:53 AM 14.0 °F -2.5 °F 10.4 °F 86% 30.01 in 10.0 mi NNW 17.3 mph - N/A   Overcast
1:33 AM 12.2 °F -5.3 °F 8.6 °F 85% 29.99 in 10.0 mi NNW 18.4 mph - N/A   Scattered Clouds
1:54 AM 12.2 °F -4.8 °F 8.6 °F 85% 29.98 in 10.0 mi NNW 17.3 mph - N/A   Mostly Cloudy
2:14 AM 14.0 °F -1.4 °F 10.4 °F 86% 29.98 in 10.0 mi NNW 15.0 mph - N/A   Overcast
2:33 AM 14.0 °F -1.4 °F 10.4 °F 86% 29.98 in 10.0 mi NNW 15.0 mph - N/A   Overcast
2:54 AM 12.2 °F -4.3 °F 8.6 °F 85% 29.98 in 10.0 mi NNW 16.1 mph - N/A   Overcast
3:13 AM 12.2 °F -3.7 °F 8.6 °F 85% 29.97 in 10.0 mi NNW 15.0 mph - N/A   Overcast
3:33 AM 12.2 °F -2.5 °F 8.6 °F 85% 29.95 in 10.0 mi NNW 12.7 mph - N/A   Overcast
3:53 AM 12.2 °F -3.1 °F 8.6 °F 85% 29.95 in 10.0 mi NNW 13.8 mph - N/A   Overcast
4:13 AM 10.4 °F -6.0 °F 6.8 °F 85% 29.95 in 10.0 mi NNW 15.0 mph 20.7 mph N/A   Overcast
4:34 AM 10.4 °F -4.8 °F 6.8 °F 85% 29.94 in 10.0 mi NNW 12.7 mph - N/A   Overcast
5:14 AM 10.4 °F -7.2 °F 6.8 °F 85% 29.93 in 10.0 mi NNW 17.3 mph - N/A   Overcast
5:33 AM 8.6 °F -7.0 °F 3.2 °F 79% 29.92 in 10.0 mi NNW 12.7 mph - N/A   Mostly Cloudy
5:53 AM 6.8 °F -8.6 °F 3.2 °F 85% 29.92 in 10.0 mi NNW 11.5 mph - N/A   Clear
6:13 AM 6.8 °F -8.6 °F 3.2 °F 85% 29.92 in 10.0 mi NNW 11.5 mph - N/A   Clear
6:33 AM 6.8 °F -7.8 °F 1.4 °F 79% 29.92 in 10.0 mi NNW 10.4 mph - N/A   Clear
6:53 AM 6.8 °F -5.9 °F 1.4 °F 79% 29.92 in 10.0 mi NNW 8.1 mph - N/A   Clear
7:14 AM 6.8 °F -2.0 °F 1.4 °F 79% 29.92 in 10.0 mi NW 4.6 mph - N/A   Clear
7:33 AM 5.0 °F -2.1 °F 1.4 °F 85% 29.92 in 10.0 mi NW 3.5 mph - N/A   Clear
7:53 AM 6.8 °F -7.8 °F 1.4 °F 79% 29.92 in 10.0 mi NW 10.4 mph - N/A   Clear
8:13 AM 6.8 °F -5.9 °F 1.4 °F 79% 29.92 in 10.0 mi NW 8.1 mph - N/A   Clear
8:33 AM 6.8 °F -4.8 °F 1.4 °F 79% 29.92 in 10.0 mi NW 6.9 mph - N/A   Clear
8:53 AM 6.8 °F -4.8 °F 1.4 °F 79% 29.92 in 10.0 mi NNW 6.9 mph - N/A   Clear
9:13 AM 8.6 °F -2.6 °F 3.2 °F 79% 29.91 in 10.0 mi NNW 6.9 mph - N/A   Clear
9:34 AM 8.6 °F 0.1 °F 3.2 °F 79% 29.91 in 10.0 mi NNW 4.6 mph - N/A   Clear
9:53 AM 10.4 °F -0.4 °F 5.0 °F 79% 29.90 in 10.0 mi NNW 6.9 mph - N/A   Clear
10:13 AM 10.4 °F -1.5 °F 5.0 °F 79% 29.91 in 10.0 mi NW 8.1 mph - N/A   Clear
10:34 AM 12.2 °F 0.7 °F 6.8 °F 79% 29.90 in 10.0 mi NW 8.1 mph - N/A   Clear
10:53 AM 12.2 °F 1.7 °F 6.8 °F 79% 29.90 in 10.0 mi NW 6.9 mph - N/A   Clear
11:13 AM 12.2 °F 1.7 °F 6.8 °F 79% 29.89 in 10.0 mi NNW 6.9 mph - N/A   Clear
11:33 AM 15.8 °F 7.2 °F 8.6 °F 73% 29.88 in 10.0 mi North 5.8 mph - N/A   Scattered Clouds
11:53 AM 15.8 °F 7.2 °F 10.4 °F 79% 29.88 in 10.0 mi North 5.8 mph - N/A   Mostly Cloudy
12:13 PM 17.6 °F 10.7 °F 10.4 °F 73% 29.88 in 10.0 mi NNW 4.6 mph - N/A   Mostly Cloudy
12:33 PM 17.6 °F 12.3 °F 10.4 °F 73% 29.87 in 10.0 mi NW 3.5 mph - N/A   Mostly Cloudy
12:53 PM 19.4 °F - 10.4 °F 68% 29.87 in 10.0 mi Calm Calm - N/A   Scattered Clouds
1:13 PM 19.4 °F 11.5 °F 12.2 °F 74% 29.87 in 10.0 mi NW 5.8 mph - N/A   Scattered Clouds
1:34 PM 19.4 °F 11.5 °F 10.4 °F 68% 29.86 in 10.0 mi WNW 5.8 mph - N/A   Scattered Clouds
1:54 PM 19.4 °F 10.4 °F 12.2 °F 74% 29.85 in 10.0 mi NW 6.9 mph - N/A   Clear
2:13 PM 21.2 °F 11.7 °F 12.2 °F 68% 29.85 in 10.0 mi WNW 8.1 mph - N/A   Clear
2:33 PM 21.2 °F 10.1 °F 12.2 °F 68% 29.85 in 10.0 mi WNW 10.4 mph - N/A   Clear
2:53 PM 21.2 °F 8.3 °F 12.2 °F 68% 29.85 in 10.0 mi NW 13.8 mph - N/A   Clear
3:13 PM 21.2 °F 10.1 °F 14.0 °F 74% 29.84 in 10.0 mi WNW 10.4 mph - N/A   Mostly Cloudy
3:33 PM 23.0 °F 12.4 °F 14.0 °F 68% 29.84 in 10.0 mi WNW 10.4 mph - N/A   Overcast
3:53 PM 23.0 °F 12.4 °F 14.0 °F 68% 29.84 in 10.0 mi NW 10.4 mph - N/A   Overcast
4:13 PM 23.0 °F 13.1 °F 14.0 °F 68% 29.84 in 10.0 mi NW 9.2 mph - N/A   Overcast
4:34 PM 24.8 °F 16.9 °F 15.8 °F 69% 29.83 in 10.0 mi NW 6.9 mph - N/A   Overcast
4:54 PM 24.8 °F 19.1 °F 15.8 °F 69% 29.82 in 10.0 mi NW 4.6 mph - N/A   Scattered Clouds
5:13 PM 21.2 °F 12.6 °F 15.8 °F 80% 29.83 in 10.0 mi NW 6.9 mph - N/A   Mostly Cloudy
5:33 PM 24.8 °F 14.6 °F 15.8 °F 69% 29.85 in 10.0 mi NW 10.4 mph - N/A   Mostly Cloudy
5:54 PM 23.0 °F 13.1 °F 15.8 °F 74% 29.85 in 10.0 mi WNW 9.2 mph - N/A   Mostly Cloudy
6:13 PM 23.0 °F 13.9 °F 15.8 °F 74% 29.85 in 10.0 mi WNW 8.1 mph - N/A   Overcast
6:33 PM 23.0 °F 17.0 °F 15.8 °F 74% 29.84 in 10.0 mi WNW 4.6 mph - N/A   Overcast
6:53 PM 23.0 °F 14.7 °F 15.8 °F 74% 29.85 in 10.0 mi WNW 6.9 mph - N/A   Overcast
7:13 PM 23.0 °F 15.8 °F 15.8 °F 74% 29.85 in 10.0 mi WNW 5.8 mph - N/A   Overcast
7:33 PM 23.0 °F 15.8 °F 15.8 °F 74% 29.86 in 10.0 mi WNW 5.8 mph - N/A   Overcast
7:53 PM 23.0 °F 18.4 °F 15.8 °F 74% 29.86 in 10.0 mi WNW 3.5 mph - N/A   Overcast
8:13 PM 23.0 °F 15.8 °F 17.6 °F 80% 29.86 in 10.0 mi West 5.8 mph - N/A   Overcast
8:33 PM 23.0 °F 17.0 °F 17.6 °F 80% 29.86 in 10.0 mi West 4.6 mph - N/A   Overcast
8:53 PM 24.8 °F 17.9 °F 19.4 °F 80% 29.86 in 10.0 mi West 5.8 mph - N/A   Overcast
9:13 PM 24.8 °F 16.9 °F 19.4 °F 80% 29.86 in 10.0 mi WSW 6.9 mph - N/A   Overcast
9:33 PM 24.8 °F 17.9 °F 19.4 °F 80% 29.86 in 10.0 mi WSW 5.8 mph - N/A   Overcast
9:54 PM 24.8 °F 16.9 °F 19.4 °F 80% 29.86 in 10.0 mi WSW 6.9 mph - N/A   Overcast
10:13 PM 24.8 °F 16.9 °F 19.4 °F 80% 29.86 in 10.0 mi WSW 6.9 mph - N/A   Overcast
10:33 PM 26.6 °F 20.0 °F 19.4 °F 74% 29.86 in 10.0 mi WSW 5.8 mph - N/A   Overcast
10:53 PM 26.6 °F 17.5 °F 21.2 °F 80% 29.86 in 10.0 mi West 9.2 mph - N/A   Overcast
11:13 PM 26.6 °F 18.2 °F 21.2 °F 80% 29.86 in 10.0 mi West 8.1 mph - N/A   Overcast
11:33 PM 26.6 °F 19.1 °F 21.2 °F 80% 29.86 in 10.0 mi West 6.9 mph - N/A   Overcast
11:53 PM 26.6 °F 21.2 °F 21.2 °F 80% 29.86 in 10.0 mi West 4.6 mph - N/A   Overcast